Portada
METAR-TAF:

METAR-TAF

Aeroports :

Morrisville-Stowe State Airport

Morrisville, Vermont, Estats Units d'Amèrica

latitud: 44-32-10N, longitud: 072-36-58W, altitud: 223 m

Observació

L'informe es va fer fa 46 minuts, a les 23:54 UTC
Vent calma
Temperatura 16°C
Humitat 82%
Pressió 1015 hPa
Visibilitat: 16.1 km
Cel clar

METAR: KMVL 242354Z AUTO 00000KT 10SM CLR 16/13 A2997 RMK AO2 SLP152 T01610128 10244 20150 53017

Hora: 20:40 (00:40 UTC)


TAF: manca

Observacions i pronòstics meteorològics de més de 4000 aeroports (METAR i TAF).

Les estacions disponibles són els punts grocs i vermells al mapa.

Posi el ratolí al punt desitjat per veure el nom de l'estació.

Feu clic per veure les observacions i els pronòstics meteorològics.

Per canviar el mapa: feu clic els botons verds amb una creu de color negre per apropar; al botó verd amb un guió per allunyar la imatge; o en les fletxes verdes per a mapes adjacents.


METAR-TAF: